Starlink 33883

operational
NORAD ID: 63781 Int'l Des: 2025-091 Owner: SPXS Country: US Constellation: starlink
LEOCIRCULAR

Starlink 33883について

説明を読み込み中...

リアルタイム位置

3D地球を読み込み中...

次回通過

高度履歴

Altitude vs Time

uPlot chart will show altitude changes over time

軌道要素

1 63781U 25091G 25305.62257935 .00024030 00000-0 87950-3 0 9997
2 63781 43.0035 55.9844 0000222 117.1245 242.9630 15.27595860 29313
Epoch: Nov 1, 2025 • Age: 26 hours

現在のステータス

高度 495.3 km
速度 7.62 km/s
衛星直下点 -40.76°S, 41.2°E
打ち上げ日 May 2, 2025
運用期間 0.5 years
タイプ internet

技術仕様

分類 Payload
質量 575.00 kg
乾燥質量 530.00 kg
総質量 575.00 kg
長さ 0.30 m
直径 4.10 m
スパン 29.00 m
形状 Box + pan
製造者 SPXS
バスタイプ Starlink V2MO
フェーズステータス In Orbit
所有者/国 SPXS/US

大規模コンステレーション

Loading constellations...